Regional Weather Roundup
Issued by NWS Kansas City/Pleasant Hill, MO

Home | Current Version | Previous Version | Graphics & Text | Print | Product List | Glossary Off
Versions: 1 2 3 4 5 6 7 8 9 10 11 12 13 14 15 16 17 18 19 20 21 22 23 24 25 26 27 28 29 30 31 32 33 34 35 36 37 38 39 40 41 42 43 44 45 46 47 48 49 50

460
ASUS43 KEAX 042310
RWREAX

WEATHER ROUNDUP FOR EASTERN KANSAS AND NORTHWEST MISSOURI
NATIONAL WEATHER SERVICE KANSAS CITY/PLEASANT HILL MO
500 PM CST SUN DEC 04 2016

KSZ040-057-103>105-MOZ028-029-037-043-050000-
...KANSAS CITY METROPOLITAN AREA...

CITY           SKY/WX    TMP DP  RH WIND       PRES   REMARKS
K.C. INTL      PTCLDY    39  33  79 W9        29.99R WCI  33
K.C. DOWNTOWN  PTCLDY    42  36  79 W10       30.01R
LEES SUMMIT    PTCLDY    42  35  76 W7        30.00R
OLATHE - IXD   CLEAR     40  36  86 SW6       30.01R
OLATHE - OJC   PTCLDY    41  35  79 W5        30.00R
LAWRENCE       MOCLDY    37  35  92 SW6       30.01R WCI  32

$$

MOZ001>008-011>017-020>025-030>033-038>040-044>046-053-054-050000-
...NORTHERN AND CENTRAL MISSOURI...

CITY           SKY/WX    TMP DP  RH WIND       PRES   REMARKS
ST. JOSEPH     PTCLDY    38  34  85 SW8       29.98R WCI  32
MOSBY          CLEAR     43  36  75 SW3       29.98R
WARRENSBURG    CLEAR     41  34  75 SW5       30.00R
WHITEMAN AFB   CLEAR     41  40  96 SW5       29.97S
CLINTON        PTCLDY    41  36  81 SW7       30.00S
SEDALIA        CLEAR     42  35  76 W6        29.99S
WARSAW         NOT AVBL
CHILLICOTHE      N/A     41  36  82 W3        29.98R
KIRKSVILLE     CLOUDY    35  33  92 W10       29.95R WCI  27

$$

MOZ041-047>049-056>058-063>065-088>090-097-050000-
...EASTERN AND SOUTHERN MISSOURI...

CITY           SKY/WX    TMP DP  RH WIND       PRES   REMARKS
ST. LOUIS INTL CLOUDY    41  35  79 W10       29.96S WCI  35
SPIRIT OF STL  CLOUDY    40  37  89 W7        29.97S
COLUMBIA       CLOUDY    39  37  92 W7        29.97S WCI  34
JEFFERSON CITY CLOUDY    41  37  86 W5        29.99S
ROLLA          CLOUDY    41  39  93 W7        29.96S
OSAGE BEACH    PTCLDY    43  36  75 W6        30.00S
SPRINGFIELD    CLOUDY    43  38  82 NW3       30.00S
BRANSON        CLOUDY    45  39  81 NW10      30.02R
JOPLIN         PTCLDY    43  37  79 VRB5      30.04S
WEST PLAINS    CLOUDY    44  39  82 NW8       29.99R

$$

IAZ060-094-KSZ022-034>040-054-083-096-NEZ052-066-093-050000-
...KANSAS...SOUTHEAST NEBRASKA AND IOWA...

CITY           SKY/WX    TMP DP  RH WIND       PRES   REMARKS
TOPEKA         CLEAR     38  34  85 VRB5      30.01R WCI  34
MANHATTAN      CLEAR     41  36  82 SW5       29.99R
EMPORIA        CLEAR     44  35  70 W3        30.00S
CHANUTE        CLEAR     45  36  70 W3        30.02S
WICHITA        CLEAR     47  35  63 S5        30.01R
OMAHA          CLEAR     36  30  79 S8        29.91R WCI  30
LINCOLN        CLEAR     34  31  88 S5        29.92F WCI  30
FALLS CITY     CLEAR     41  36  82 SW8       29.96R
LAMONI         CLOUDY    37  34  89 SW6       29.93R WCI  32
DES MOINES     PTCLDY    36  33  89 W8        29.90F FOG     WCI  30

$$





USA.gov is the U.S. government's official web portal to all federal, state and local government web resources and services.